Total_Precipitation_Accumulation
0.30 0.36 0.25 0.11 0.07 0.04 0.04 0.04 0.03 0.01 0.00 0.01 0.00 0.00 0.00 0.00 0.00 0.00 0.00 0.00 0.00 0.00 0.00 0.00 0.00 0.00 0.00 0.00 0.00 0.00 0.00 0.02 0.07 0.12 0.13 0.15 0.15 0.19 0.21 0.19 0.19 0.16 0.09 0.05
0.33 0.26 0.13 0.09 0.09 0.08 0.08 0.09 0.06 0.02 0.01 0.02 0.01 0.00 0.00 0.00 0.00 0.00 0.00 0.00 0.00 0.00 0.00 0.00 0.00 0.00 0.00 0.00 0.00 0.00 0.00 0.01 0.02 0.04 0.08 0.18 0.26 0.29 0.29 0.29 0.26 0.22 0.17 0.14
0.28 0.17 0.13 0.15 0.17 0.13 0.09 0.08 0.07 0.06 0.04 0.04 0.04 0.01 0.00 0.00 0.00 0.00 0.00 0.00 0.00 0.00 0.00 0.00 0.00 0.00 0.00 0.00 0.00 0.00 0.00 0.00 0.02 0.05 0.14 0.23 0.28 0.26 0.23 0.18 0.15 0.19 0.22 0.22
0.29 0.21 0.22 0.23 0.19 0.15 0.10 0.05 0.07 0.09 0.11 0.10 0.07 0.04 0.00 0.00 0.00 0.00 0.00 0.00 0.00 0.00 0.00 0.00 0.00 0.00 0.00 0.00 0.00 0.00 0.00 0.00 0.01 0.04 0.07 0.11 0.12 0.12 0.12 0.14 0.17 0.22 0.25 0.27
0.35 0.28 0.30 0.28 0.15 0.14 0.12 0.06 0.10 0.16 0.19 0.19 0.12 0.07 0.01 0.00 0.00 0.00 0.00 0.00 0.00 0.00 0.00 0.00 0.00 0.00 0.00 0.00 0.00 0.00 0.00 0.00 0.01 0.02 0.04 0.08 0.11 0.11 0.12 0.14 0.16 0.17 0.20 0.23
0.29 0.28 0.33 0.28 0.13 0.16 0.19 0.21 0.23 0.26 0.38 0.35 0.15 0.10 0.04 0.00 0.00 0.00 0.00 0.00 0.00 0.00 0.00 0.00 0.00 0.00 0.00 0.00 0.00 0.00 0.00 0.00 0.01 0.01 0.02 0.05 0.07 0.08 0.09 0.09 0.12 0.14 0.16 0.18
0.52 0.43 0.34 0.34 0.33 0.35 0.40 0.56 0.67 0.57 0.55 0.33 0.11 0.10 0.05 0.00 0.00 0.00 0.00 0.00 0.00 0.00 0.00 0.00 0.00 0.00 0.00 0.00 0.00 0.00 0.00 0.00 0.01 0.01 0.02 0.03 0.07 0.10 0.11 0.11 0.12 0.14 0.13 0.12
0.56 0.47 0.31 0.39 0.45 0.49 0.45 0.55 0.60 0.43 0.26 0.13 0.10 0.09 0.03 0.00 0.00 0.00 0.00 0.00 0.00 0.00 0.00 0.00 0.00 0.00 0.00 0.00 0.00 0.00 0.00 0.00 0.01 0.01 0.02 0.02 0.04 0.07 0.08 0.10 0.10 0.12 0.13 0.16
0.41 0.40 0.24 0.28 0.33 0.36 0.46 0.50 0.39 0.47 0.31 0.18 0.11 0.07 0.02 0.00 0.00 0.00 0.00 0.00 0.00 0.00 0.00 0.00 0.00 0.00 0.00 0.00 0.00 0.00 0.00 0.01 0.02 0.02 0.02 0.02 0.02 0.04 0.06 0.08 0.09 0.11 0.12 0.14
0.40 0.51 0.34 0.35 0.48 0.45 0.44 0.42 0.52 0.81 0.59 0.28 0.11 0.05 0.01 0.00 0.00 0.00 0.00 0.00 0.00 0.00 0.00 0.00 0.00 0.00 0.00 0.00 0.00 0.00 0.01 0.02 0.03 0.03 0.03 0.02 0.03 0.04 0.05 0.06 0.06 0.08 0.10 0.11
0.39 0.61 0.51 0.52 0.61 0.43 0.44 0.52 0.60 0.61 0.47 0.38 0.17 0.05 0.02 0.01 0.01 0.01 0.01 0.00 0.00 0.00 0.00 0.00 0.00 0.00 0.00 0.00 0.00 0.01 0.02 0.03 0.04 0.03 0.03 0.03 0.03 0.04 0.05 0.05 0.06 0.07 0.08 0.09
0.37 0.63 0.55 0.40 0.35 0.27 0.33 0.35 0.44 0.59 0.43 0.33 0.22 0.06 0.01 0.01 0.02 0.03 0.03 0.02 0.01 0.00 0.00 0.00 0.00 0.00 0.00 0.01 0.02 0.03 0.05 0.05 0.04 0.04 0.03 0.04 0.04 0.05 0.05 0.06 0.06 0.06 0.07 0.07
0.39 0.67 0.67 0.48 0.46 0.45 0.44 0.33 0.35 0.54 0.70 0.50 0.33 0.09 0.02 0.02 0.04 0.07 0.07 0.06 0.04 0.03 0.02 0.02 0.02 0.01 0.02 0.02 0.04 0.05 0.05 0.04 0.04 0.04 0.04 0.04 0.04 0.05 0.06 0.07 0.06 0.06 0.05 0.05
0.55 0.72 0.64 0.52 0.44 0.48 0.47 0.34 0.38 0.78 0.92 0.44 0.20 0.09 0.06 0.06 0.09 0.11 0.12 0.11 0.08 0.05 0.04 0.04 0.03 0.04 0.03 0.04 0.05 0.05 0.04 0.04 0.05 0.05 0.05 0.05 0.05 0.06 0.07 0.07 0.06 0.05 0.04 0.03
0.57 0.75 0.56 0.37 0.30 0.41 0.43 0.38 0.46 0.70 0.62 0.48 0.21 0.14 0.14 0.13 0.15 0.13 0.12 0.09 0.07 0.05 0.05 0.05 0.05 0.05 0.05 0.05 0.04 0.03 0.04 0.04 0.05 0.06 0.08 0.08 0.07 0.07 0.07 0.06 0.05 0.04 0.03 0.02
0.37 0.58 0.55 0.42 0.29 0.37 0.40 0.36 0.41 0.47 0.42 0.39 0.30 0.27 0.16 0.15 0.14 0.13 0.12 0.09 0.06 0.05 0.05 0.05 0.05 0.05 0.06 0.07 0.05 0.06 0.07 0.07 0.08 0.10 0.11 0.10 0.09 0.08 0.07 0.06 0.05 0.04 0.03 0.03
0.24 0.42 0.59 0.49 0.32 0.40 0.49 0.39 0.39 0.38 0.28 0.27 0.29 0.22 0.15 0.17 0.16 0.13 0.11 0.08 0.05 0.03 0.03 0.03 0.02 0.03 0.03 0.03 0.04 0.07 0.10 0.13 0.13 0.13 0.13 0.13 0.12 0.11 0.08 0.08 0.09 0.09 0.09 0.10
0.11 0.27 0.49 0.41 0.37 0.47 0.39 0.28 0.27 0.26 0.19 0.18 0.18 0.12 0.13 0.15 0.15 0.11 0.09 0.07 0.04 0.03 0.02 0.01 0.01 0.01 0.02 0.02 0.03 0.04 0.06 0.08 0.12 0.13 0.13 0.13 0.14 0.15 0.13 0.15 0.17 0.19 0.23 0.26
0.06 0.21 0.39 0.31 0.27 0.21 0.14 0.12 0.13 0.16 0.15 0.11 0.11 0.10 0.09 0.11 0.14 0.13 0.11 0.09 0.06 0.04 0.03 0.01 0.01 0.01 0.02 0.02 0.03 0.04 0.05 0.07 0.09 0.12 0.14 0.15 0.17 0.24 0.30 0.34 0.36 0.36 0.38 0.39
0.07 0.16 0.31 0.23 0.20 0.12 0.07 0.03 0.03 0.07 0.08 0.04 0.06 0.08 0.09 0.10 0.12 0.11 0.09 0.08 0.08 0.06 0.05 0.04 0.03 0.03 0.04 0.04 0.04 0.06 0.09 0.13 0.17 0.21 0.26 0.30 0.34 0.44 0.50 0.51 0.50 0.46 0.42 0.38
0.10 0.16 0.20 0.16 0.13 0.03 0.01 0.01 0.01 0.05 0.05 0.01 0.02 0.06 0.09 0.09 0.09 0.08 0.07 0.07 0.07 0.08 0.09 0.10 0.11 0.13 0.14 0.14 0.17 0.21 0.25 0.31 0.35 0.36 0.42 0.47 0.45 0.45 0.45 0.42 0.38 0.32 0.26 0.20
0.03 0.06 0.07 0.07 0.07 0.03 0.01 0.01 0.01 0.02 0.01 0.00 0.01 0.02 0.05 0.07 0.08 0.08 0.06 0.04 0.05 0.07 0.08 0.12 0.18 0.24 0.27 0.30 0.37 0.42 0.43 0.44 0.43 0.42 0.43 0.42 0.39 0.35 0.31 0.26 0.19 0.13 0.09 0.06
0.01 0.01 0.02 0.02 0.02 0.01 0.00 0.00 0.00 0.00 0.00 0.00 0.01 0.02 0.03 0.06 0.06 0.06 0.06 0.04 0.03 0.03 0.05 0.08 0.13 0.17 0.21 0.26 0.30 0.35 0.35 0.33 0.30 0.29 0.27 0.24 0.20 0.16 0.12 0.09 0.05 0.03 0.02 0.01
0.02 0.01 0.02 0.01 0.00 0.00 0.00 0.00 0.00 0.00 0.00 0.00 0.01 0.02 0.02 0.03 0.03 0.02 0.02 0.03 0.03 0.02 0.01 0.02 0.03 0.04 0.05 0.07 0.10 0.13 0.12 0.11 0.10 0.09 0.08 0.06 0.04 0.03 0.02 0.01 0.00 0.00 0.00 0.00
0.03 0.03 0.02 0.02 0.01 0.00 0.01 0.01 0.00 0.00 0.00 0.00 0.00 0.00 0.01 0.01 0.01 0.01 0.01 0.01 0.01 0.01 0.00 0.01 0.01 0.01 0.02 0.02 0.03 0.02 0.02 0.02 0.01 0.01 0.01 0.01 0.00 0.00 0.00 0.00 0.00 0.00 0.00 0.00
0.00 0.00 0.00 0.01 0.00 0.01 0.01 0.00 0.00 0.00 0.00 0.00 0.00 0.00 0.00 0.00 0.00 0.01 0.01 0.00 0.00 0.00 0.00 0.00 0.00 0.00 0.00 0.00 0.00 0.00 0.00 0.00 0.00 0.00 0.00 0.00 0.00 0.00 0.00 0.00 0.00 0.00 0.00 0.00